Hourly Weather Rusily

Today, 23 April, Friday

Time Temperature Precipitation Wind Pressure Humidity
00:00 +1°C° 0 mm 4 mps 748 mmHg 78%
01:00 0°C° 0 mm 4 mps 748 mmHg 80%
02:00 0°C° 0 mm 4 mps 748 mmHg 82%
03:00 0°C° 0 mm 4 mps 748 mmHg 80%
04:00 -1°C° 0 mm 4 mps 748 mmHg 78%
05:00 -1°C° 0 mm 4 mps 748 mmHg 76%
06:00 0°C° 0 mm 5 mps 748 mmHg 73%
07:00 +1°C° 0 mm 5 mps 749 mmHg 70%
08:00 +2°C° 0 mm 6 mps 749 mmHg 67%
09:00 +3°C° 0.1 mm 6 mps 749 mmHg 62%
10:00 +4°C° 0.1 mm 6 mps 749 mmHg 56%
11:00 +5°C° 0.1 mm 6 mps 749 mmHg 51%
12:00 +7°C° 0.1 mm 6 mps 749 mmHg 50%
13:00 +6°C° 0.1 mm 7 mps 749 mmHg 49%
14:00 +8°C° 0.1 mm 7 mps 749 mmHg 47%
15:00 +6°C° 0.4 mm 7 mps 749 mmHg 53%
16:00 +5°C° 0.4 mm 6 mps 749 mmHg 59%
17:00 +5°C° 0.4 mm 6 mps 750 mmHg 65%
18:00 +3°C° 0.1 mm 5 mps 750 mmHg 67%
19:00 +3°C° 0.1 mm 3 mps 750 mmHg 69%
20:00 +3°C° 0.1 mm 2 mps 750 mmHg 70%
21:00 +3°C° 0 mm 2 mps 750 mmHg 70%
22:00 +3°C° 0 mm 2 mps 751 mmHg 69%
23:00 +1°C° 0 mm 3 mps 751 mmHg 69%

Tomorrow, 24 April, Saturday

Time Temperature Precipitation Wind Pressure Humidity
00:00 +1°C° 0 mm 3 mps 751 mmHg 72%
01:00 0°C° 0 mm 3 mps 751 mmHg 74%
02:00 0°C° 0 mm 3 mps 751 mmHg 77%
03:00 -1°C° 0 mm 3 mps 751 mmHg 81%
04:00 -1°C° 0 mm 3 mps 751 mmHg 84%
05:00 -1°C° 0 mm 3 mps 751 mmHg 88%
06:00 0°C° 0 mm 3 mps 751 mmHg 82%
07:00 +2°C° 0 mm 3 mps 751 mmHg 75%
08:00 +3°C° 0 mm 3 mps 751 mmHg 69%
09:00 +4°C° 0.1 mm 3 mps 751 mmHg 61%
10:00 +6°C° 0.1 mm 4 mps 751 mmHg 52%
11:00 +7°C° 0.1 mm 5 mps 751 mmHg 44%
12:00 +7°C° 0 mm 5 mps 751 mmHg 42%
13:00 +8°C° 0 mm 5 mps 751 mmHg 40%
14:00 +8°C° 0 mm 5 mps 751 mmHg 39%
15:00 +8°C° 0 mm 5 mps 750 mmHg 39%
16:00 +8°C° 0 mm 5 mps 750 mmHg 39%
17:00 +8°C° 0 mm 4 mps 750 mmHg 39%
18:00 +8°C° 0 mm 3 mps 750 mmHg 44%
19:00 +6°C° 0 mm 2 mps 750 mmHg 50%
20:00 +6°C° 0 mm 1 mps 750 mmHg 56%
21:00 +4°C° 0 mm 2 mps 750 mmHg 60%
22:00 +4°C° 0 mm 2 mps 750 mmHg 64%
23:00 +3°C° 0 mm 3 mps 750 mmHg 68%

Day after tomorrow, 25 April, Sunday

Time Temperature Precipitation Wind Pressure Humidity
00:00 +2°C° 0.1 mm 3 mps 750 mmHg 76%
01:00 +1°C° 0.1 mm 3 mps 750 mmHg 83%
02:00 0°C° 0.1 mm 3 mps 750 mmHg 91%
03:00 -1°C° 0 mm 3 mps 750 mmHg 92%
04:00 -2°C° 0 mm 3 mps 751 mmHg 92%
05:00 -4°C° 0 mm 3 mps 751 mmHg 93%
06:00 -1°C° 0 mm 3 mps 751 mmHg 82%
07:00 0°C° 0 mm 3 mps 751 mmHg 71%
08:00 0°C° 0 mm 4 mps 751 mmHg 61%
09:00 +3°C° 0 mm 4 mps 751 mmHg 55%
10:00 +4°C° 0 mm 4 mps 751 mmHg 50%
11:00 +5°C° 0 mm 5 mps 751 mmHg 44%
12:00 +5°C° 0.1 mm 5 mps 751 mmHg 43%
13:00 +6°C° 0.1 mm 5 mps 751 mmHg 41%
14:00 +6°C° 0.1 mm 5 mps 750 mmHg 40%
15:00 +6°C° 0.1 mm 5 mps 750 mmHg 43%
16:00 +6°C° 0.1 mm 5 mps 750 mmHg 46%
17:00 +6°C° 0.1 mm 5 mps 750 mmHg 49%
18:00 +4°C° 0.1 mm 4 mps 750 mmHg 56%
19:00 +3°C° 0.1 mm 4 mps 750 mmHg 63%
20:00 +2°C° 0.1 mm 3 mps 750 mmHg 70%
21:00 +1°C° 0.1 mm 3 mps 750 mmHg 75%
22:00 0°C° 0.1 mm 3 mps 750 mmHg 79%
23:00 0°C° 0.1 mm 3 mps 750 mmHg 84%

26 April, Monday

Time Temperature Precipitation Wind Pressure Humidity
00:00 -1°C° 0 mm 3 mps 750 mmHg 85%
01:00 -1°C° 0 mm 3 mps 750 mmHg 86%
02:00 -2°C° 0 mm 3 mps 750 mmHg 87%
03:00 -2°C° 0 mm 2 mps 750 mmHg 86%
04:00 -3°C° 0 mm 2 mps 750 mmHg 86%
05:00 -3°C° 0 mm 2 mps 750 mmHg 85%
06:00 -1°C° 0 mm 2 mps 750 mmHg 75%
07:00 0°C° 0 mm 3 mps 750 mmHg 65%
08:00 +2°C° 0 mm 3 mps 750 mmHg 55%
09:00 +3°C° 0 mm 3 mps 750 mmHg 50%
10:00 +4°C° 0 mm 4 mps 749 mmHg 45%
11:00 +6°C° 0 mm 4 mps 749 mmHg 39%
12:00 +6°C° 0 mm 4 mps 749 mmHg 39%
13:00 +6°C° 0 mm 4 mps 748 mmHg 40%
14:00 +7°C° 0 mm 4 mps 748 mmHg 40%
15:00 +7°C° 0.1 mm 4 mps 748 mmHg 42%
16:00 +6°C° 0.1 mm 4 mps 747 mmHg 45%
17:00 +6°C° 0.1 mm 4 mps 747 mmHg 47%
18:00 +5°C° 0.1 mm 3 mps 747 mmHg 55%
19:00 +4°C° 0.1 mm 2 mps 747 mmHg 63%
20:00 +4°C° 0.1 mm 1 mps 747 mmHg 71%
21:00 +2°C° 0 mm 2 mps 747 mmHg 73%
22:00 +2°C° 0 mm 2 mps 747 mmHg 76%
23:00 +1°C° 0 mm 2 mps 747 mmHg 78%

27 April, Tuesday

Time Temperature Precipitation Wind Pressure Humidity
00:00 +1°C° 0 mm 2 mps 747 mmHg 80%
01:00 -1°C° 0 mm 2 mps 747 mmHg 82%
02:00 -1°C° 0 mm 2 mps 747 mmHg 84%
03:00 -2°C° 0 mm 2 mps 747 mmHg 86%
04:00 -2°C° 0 mm 2 mps 747 mmHg 87%
05:00 -2°C° 0 mm 2 mps 747 mmHg 88%
06:00 +2°C° 0 mm 1 mps 747 mmHg 81%
07:00 +3°C° 0 mm 1 mps 747 mmHg 73%
08:00 +5°C° 0 mm 1 mps 747 mmHg 65%
09:00 +6°C° 0 mm 1 mps 747 mmHg 58%
10:00 +8°C° 0 mm 1 mps 747 mmHg 50%
11:00 +9°C° 0 mm 1 mps 746 mmHg 43%
12:00 +10°C° 0 mm 1 mps 746 mmHg 42%
13:00 +11°C° 0 mm 1 mps 745 mmHg 41%
14:00 +10°C° 0 mm 2 mps 745 mmHg 40%
15:00 +10°C° 0 mm 2 mps 745 mmHg 41%
16:00 +10°C° 0 mm 2 mps 744 mmHg 42%
17:00 +11°C° 0 mm 3 mps 744 mmHg 43%
18:00 +9°C° 0 mm 3 mps 744 mmHg 50%
19:00 +8°C° 0 mm 3 mps 743 mmHg 56%
20:00 +7°C° 0 mm 3 mps 743 mmHg 62%
21:00 +7°C° 0 mm 3 mps 743 mmHg 62%
22:00 +5°C° 0 mm 4 mps 742 mmHg 62%
23:00 +5°C° 0 mm 4 mps 742 mmHg 62%

28 April, Wednesday

Time Temperature Precipitation Wind Pressure Humidity
00:00 +5°C° 0 mm 4 mps 741 mmHg 63%
01:00 +6°C° 0 mm 4 mps 741 mmHg 63%
02:00 +6°C° 0 mm 4 mps 740 mmHg 64%
03:00 +5°C° 0.4 mm 4 mps 740 mmHg 73%
04:00 +5°C° 0.4 mm 5 mps 739 mmHg 82%
05:00 +3°C° 0.4 mm 5 mps 739 mmHg 92%
06:00 +5°C° 0.1 mm 4 mps 739 mmHg 93%
07:00 +5°C° 0.1 mm 4 mps 738 mmHg 94%
08:00 +5°C° 0.1 mm 4 mps 738 mmHg 95%
09:00 +6°C° 0 mm 4 mps 738 mmHg 91%
10:00 +9°C° 0 mm 3 mps 738 mmHg 88%
11:00 +10°C° 0 mm 3 mps 738 mmHg 84%
12:00 +11°C° 0.1 mm 3 mps 738 mmHg 82%
13:00 +11°C° 0.1 mm 3 mps 737 mmHg 81%
14:00 +12°C° 0.1 mm 3 mps 737 mmHg 79%
15:00 +12°C° 0.1 mm 3 mps 737 mmHg 82%
16:00 +11°C° 0.1 mm 3 mps 737 mmHg 85%
17:00 +11°C° 0.1 mm 3 mps 737 mmHg 89%
18:00 +10°C° 0.2 mm 3 mps 737 mmHg 91%
19:00 +10°C° 0.2 mm 2 mps 736 mmHg 94%
20:00 +10°C° 0.2 mm 2 mps 736 mmHg 97%
21:00 +10°C° 1.3 mm 2 mps 736 mmHg 97%
22:00 +10°C° 1.3 mm 2 mps 736 mmHg 98%
23:00 +10°C° 1.3 mm 2 mps 735 mmHg 98%
Show more